Year,Month,Day,Hour,Minute,Value (Times are PST for temperature in C)
2012,11,08,00,00,3.40
2012,11,08,00,01,3.40
2012,11,08,00,02,3.40
2012,11,08,00,03,3.30
2012,11,08,00,04,3.30
2012,11,08,00,05,3.30
2012,11,08,00,06,3.30
2012,11,08,00,07,3.30
2012,11,08,00,08,3.30
2012,11,08,00,09,3.20
2012,11,08,00,10,3.20
2012,11,08,00,11,3.20
2012,11,08,00,12,3.20
2012,11,08,00,17,3.20
2012,11,08,00,18,3.20
2012,11,08,00,19,3.20
2012,11,08,00,20,3.20
2012,11,08,00,21,3.20
2012,11,08,00,22,3.20
2012,11,08,00,23,3.20
2012,11,08,00,24,3.20
2012,11,08,00,25,3.20
2012,11,08,00,26,3.20
2012,11,08,00,27,3.20
2012,11,08,00,28,3.20
2012,11,08,00,29,3.20
2012,11,08,00,30,3.20
2012,11,08,00,31,3.20
2012,11,08,00,32,3.20
2012,11,08,00,33,3.20
2012,11,08,00,34,3.20
2012,11,08,00,35,3.20
2012,11,08,00,36,3.20
2012,11,08,00,37,3.20
2012,11,08,00,38,3.20
2012,11,08,00,39,3.10
2012,11,08,00,40,3.10
2012,11,08,00,41,3.10
2012,11,08,00,42,3.10
2012,11,08,00,43,3.10
2012,11,08,00,44,3.10
2012,11,08,00,45,3.10
2012,11,08,00,46,3.10
2012,11,08,00,47,3.10
2012,11,08,00,48,3.10
2012,11,08,00,49,3.10
2012,11,08,00,50,3.10
2012,11,08,00,51,3.10
2012,11,08,00,52,3.10
2012,11,08,00,53,3.10
2012,11,08,00,54,3.10
2012,11,08,00,55,3.10
2012,11,08,00,56,3.10
2012,11,08,00,57,3.10
2012,11,08,00,58,3.10
2012,11,08,00,59,3.10
2012,11,08,01,00,3.00
2012,11,08,01,01,3.00
2012,11,08,01,02,3.00
2012,11,08,01,03,3.00
2012,11,08,01,04,3.00
2012,11,08,01,05,3.00
2012,11,08,01,06,3.00
2012,11,08,01,07,2.90
2012,11,08,01,08,3.00
2012,11,08,01,09,2.90
2012,11,08,01,10,2.90
2012,11,08,01,11,2.90
2012,11,08,01,12,2.90
2012,11,08,01,13,2.90
2012,11,08,01,14,2.90
2012,11,08,01,15,2.90
2012,11,08,01,16,2.90
2012,11,08,01,17,2.90
2012,11,08,01,18,2.90
2012,11,08,01,19,2.90
2012,11,08,01,20,2.90
2012,11,08,01,21,2.90
2012,11,08,01,22,2.80
2012,11,08,01,23,2.80
2012,11,08,01,24,2.80
2012,11,08,01,25,2.80
2012,11,08,01,26,2.80
2012,11,08,01,27,2.80
2012,11,08,01,28,2.80
2012,11,08,01,29,2.80
2012,11,08,01,30,2.80
2012,11,08,01,31,2.80
2012,11,08,01,32,2.80
2012,11,08,01,33,2.80
2012,11,08,01,34,2.80
2012,11,08,01,35,2.80
2012,11,08,01,36,2.80
2012,11,08,01,37,2.80
2012,11,08,01,38,2.80
2012,11,08,01,39,2.80
2012,11,08,01,40,2.80
2012,11,08,01,41,2.80
2012,11,08,01,42,2.80
2012,11,08,01,43,2.80
2012,11,08,01,44,2.80
2012,11,08,01,45,2.80
2012,11,08,01,46,2.80
2012,11,08,01,47,2.80
2012,11,08,01,48,2.80
2012,11,08,01,49,2.80
2012,11,08,01,50,2.80
2012,11,08,01,51,2.70
2012,11,08,01,52,2.70
2012,11,08,01,53,2.70
2012,11,08,01,54,2.70
2012,11,08,01,55,2.70
2012,11,08,01,56,2.70
2012,11,08,01,57,2.70
2012,11,08,01,58,2.70
2012,11,08,01,59,2.60
2012,11,08,02,00,2.60
2012,11,08,02,01,2.60
2012,11,08,02,02,2.60
2012,11,08,02,03,2.60
2012,11,08,02,04,2.60
2012,11,08,02,05,2.60
2012,11,08,02,06,2.60
2012,11,08,02,07,2.60
2012,11,08,02,08,2.60
2012,11,08,02,09,2.50
2012,11,08,02,10,2.50
2012,11,08,02,11,2.50
2012,11,08,02,12,2.50
2012,11,08,02,13,2.50
2012,11,08,02,14,2.50
2012,11,08,02,15,2.50
2012,11,08,02,16,2.50
2012,11,08,02,17,2.50
2012,11,08,02,18,2.40
2012,11,08,02,19,2.40
2012,11,08,02,20,2.40
2012,11,08,02,21,2.50
2012,11,08,02,22,2.40
2012,11,08,02,23,2.40
2012,11,08,02,24,2.40
2012,11,08,02,25,2.40
2012,11,08,02,26,2.40
2012,11,08,02,27,2.40
2012,11,08,02,28,2.40
2012,11,08,02,29,2.40
2012,11,08,02,30,2.40
2012,11,08,02,31,2.40
2012,11,08,02,32,2.40
2012,11,08,02,33,2.40
2012,11,08,02,34,2.40
2012,11,08,02,35,2.40
2012,11,08,02,36,2.40
2012,11,08,02,37,2.40
2012,11,08,02,38,2.40
2012,11,08,02,39,2.40
2012,11,08,02,40,2.40
2012,11,08,02,41,2.40
2012,11,08,02,42,2.40
2012,11,08,02,43,2.40
2012,11,08,02,44,2.40
2012,11,08,02,45,2.40
2012,11,08,02,46,2.40
2012,11,08,02,47,2.40
2012,11,08,02,48,2.40
2012,11,08,02,49,2.40
2012,11,08,02,50,2.40
2012,11,08,02,51,2.40
2012,11,08,02,52,2.40
2012,11,08,02,53,2.40
2012,11,08,02,54,2.40
2012,11,08,02,55,2.40
2012,11,08,02,56,2.40
2012,11,08,02,57,2.40
2012,11,08,02,58,2.40
2012,11,08,02,59,2.40
2012,11,08,03,00,2.40
2012,11,08,03,01,2.40
2012,11,08,03,02,2.40
2012,11,08,03,03,2.50
2012,11,08,03,04,2.40
2012,11,08,03,05,2.50
2012,11,08,03,06,2.50
2012,11,08,03,07,2.50
2012,11,08,03,08,2.50
2012,11,08,03,09,2.50
2012,11,08,03,10,2.50
2012,11,08,03,11,2.50
2012,11,08,03,12,2.50
2012,11,08,03,13,2.50
2012,11,08,03,14,2.50
2012,11,08,03,15,2.50
2012,11,08,03,16,2.50
2012,11,08,03,17,2.50
2012,11,08,03,18,2.50
2012,11,08,03,19,2.50
2012,11,08,03,20,2.50
2012,11,08,03,21,2.50
2012,11,08,03,22,2.50
2012,11,08,03,23,2.50
2012,11,08,03,24,2.50
2012,11,08,03,25,2.50
2012,11,08,03,26,2.50
2012,11,08,03,27,2.50
2012,11,08,03,28,2.50
2012,11,08,03,29,2.60
2012,11,08,03,30,2.60
2012,11,08,03,31,2.60
2012,11,08,03,32,2.60
2012,11,08,03,33,2.60
2012,11,08,03,34,2.60
2012,11,08,03,35,2.60
2012,11,08,03,36,2.60
2012,11,08,03,37,2.60
2012,11,08,03,38,2.60
2012,11,08,03,39,2.60
2012,11,08,03,40,2.60
2012,11,08,03,41,2.60
2012,11,08,03,42,2.60
2012,11,08,03,43,2.60
2012,11,08,03,44,2.60
2012,11,08,03,45,2.60
2012,11,08,03,46,2.60
2012,11,08,03,47,2.60
2012,11,08,03,48,2.60
2012,11,08,03,49,2.60
2012,11,08,03,50,2.60
2012,11,08,03,51,2.60
2012,11,08,03,52,2.60
2012,11,08,03,53,2.60
2012,11,08,03,54,2.60
2012,11,08,03,55,2.60
2012,11,08,03,56,2.60
2012,11,08,03,57,2.60
2012,11,08,03,58,2.60
2012,11,08,03,59,2.60
2012,11,08,04,00,2.60
2012,11,08,04,01,2.60
2012,11,08,04,02,2.60
2012,11,08,04,03,2.60
2012,11,08,04,04,2.60
2012,11,08,04,05,2.60
2012,11,08,04,06,2.60
2012,11,08,04,07,2.60
2012,11,08,04,08,2.60
2012,11,08,04,09,2.60
2012,11,08,04,10,2.60
2012,11,08,04,11,2.60
2012,11,08,04,12,2.60
2012,11,08,04,13,2.70
2012,11,08,04,14,2.70
2012,11,08,04,15,2.70
2012,11,08,04,16,2.70
2012,11,08,04,17,2.70
2012,11,08,04,18,2.70
2012,11,08,04,19,2.70
2012,11,08,04,20,2.70
2012,11,08,04,21,2.70
2012,11,08,04,22,2.70
2012,11,08,04,23,2.70
2012,11,08,04,24,2.70
2012,11,08,04,25,2.70
2012,11,08,04,26,2.70
2012,11,08,04,27,2.70
2012,11,08,04,28,2.80
2012,11,08,04,29,2.80
2012,11,08,04,30,2.80
2012,11,08,04,31,2.80
2012,11,08,04,32,2.80
2012,11,08,04,33,2.80
2012,11,08,04,34,2.80
2012,11,08,04,35,2.80
2012,11,08,04,36,2.80
2012,11,08,04,37,2.80
2012,11,08,04,38,2.80
2012,11,08,04,39,2.80
2012,11,08,04,40,2.80
2012,11,08,04,41,2.80
2012,11,08,04,42,2.80
2012,11,08,04,43,2.80
2012,11,08,04,44,2.80
2012,11,08,04,45,2.80
2012,11,08,04,46,2.80
2012,11,08,04,47,2.80
2012,11,08,04,48,2.80
2012,11,08,04,49,2.80
2012,11,08,04,50,2.80
2012,11,08,04,51,2.80
2012,11,08,04,52,2.80
2012,11,08,04,53,2.80
2012,11,08,04,54,2.80
2012,11,08,04,55,2.80
2012,11,08,04,56,2.80
2012,11,08,04,57,2.80
2012,11,08,04,58,2.80
2012,11,08,04,59,2.80
2012,11,08,05,00,2.80
2012,11,08,05,01,2.80
2012,11,08,05,02,2.80
2012,11,08,05,03,2.80
2012,11,08,05,04,2.80
2012,11,08,05,05,2.80
2012,11,08,05,06,2.80
2012,11,08,05,07,2.80
2012,11,08,05,08,2.80
2012,11,08,05,09,2.80
2012,11,08,05,10,2.80
2012,11,08,05,11,2.80
2012,11,08,05,12,2.80
2012,11,08,05,13,2.80
2012,11,08,05,14,2.80
2012,11,08,05,15,2.80
2012,11,08,05,16,2.80
2012,11,08,05,17,2.80
2012,11,08,05,18,2.80
2012,11,08,05,19,2.80
2012,11,08,05,20,2.80
2012,11,08,05,21,2.80
2012,11,08,05,22,2.80
2012,11,08,05,23,2.80
2012,11,08,05,24,2.80
2012,11,08,05,25,2.80
2012,11,08,05,26,2.80
2012,11,08,05,27,2.80
2012,11,08,05,28,2.80
2012,11,08,05,29,2.80
2012,11,08,05,30,2.80
2012,11,08,05,31,2.80
2012,11,08,05,32,2.80
2012,11,08,05,33,2.80
2012,11,08,05,34,2.90
2012,11,08,05,35,2.90
2012,11,08,05,36,2.90
2012,11,08,05,37,2.90
2012,11,08,05,38,2.90
2012,11,08,05,39,2.90
2012,11,08,05,40,2.90
2012,11,08,05,41,2.90
2012,11,08,05,42,2.90
2012,11,08,05,43,2.90
2012,11,08,05,44,2.90
2012,11,08,05,45,2.90
2012,11,08,05,46,2.90
2012,11,08,05,47,2.90
2012,11,08,05,48,2.90
2012,11,08,05,49,2.90
2012,11,08,05,50,3.00
2012,11,08,05,51,3.00
2012,11,08,05,52,2.90
2012,11,08,05,53,2.90
2012,11,08,05,54,2.90
2012,11,08,05,55,2.90
2012,11,08,05,56,2.90
2012,11,08,05,57,2.90
2012,11,08,05,58,2.90
2012,11,08,05,59,2.90
2012,11,08,06,00,2.90
2012,11,08,06,01,2.90
2012,11,08,06,02,2.90
2012,11,08,06,03,2.90
2012,11,08,06,04,2.90
2012,11,08,06,05,2.90
2012,11,08,06,06,2.90
2012,11,08,06,07,2.90
2012,11,08,06,08,2.90
2012,11,08,06,09,2.80
2012,11,08,06,10,2.80
2012,11,08,06,11,2.80
2012,11,08,06,12,2.80
2012,11,08,06,13,2.80
2012,11,08,06,14,2.80
2012,11,08,06,15,2.80
2012,11,08,06,16,2.80
2012,11,08,06,17,2.80
2012,11,08,06,18,2.80
2012,11,08,06,19,2.80
2012,11,08,06,20,2.80
2012,11,08,06,21,2.80
2012,11,08,06,22,2.80
2012,11,08,06,23,2.80
2012,11,08,06,24,2.80
2012,11,08,06,25,2.80
2012,11,08,06,26,2.80
2012,11,08,06,27,2.80
2012,11,08,06,28,2.80
2012,11,08,06,29,2.80
2012,11,08,06,30,2.80
2012,11,08,06,31,2.80
2012,11,08,06,32,2.80
2012,11,08,06,33,2.80
2012,11,08,06,34,2.80
2012,11,08,06,35,2.80
2012,11,08,06,36,2.80
2012,11,08,06,37,2.80
2012,11,08,06,38,2.80
2012,11,08,06,39,2.80
2012,11,08,06,40,2.80
2012,11,08,06,41,2.80
2012,11,08,06,42,2.80
2012,11,08,06,43,2.90
2012,11,08,06,44,2.90
2012,11,08,06,45,2.90
2012,11,08,06,46,2.90
2012,11,08,06,47,2.90
2012,11,08,06,48,2.90
2012,11,08,06,49,2.90
2012,11,08,06,50,2.90
2012,11,08,06,51,2.90
2012,11,08,06,52,2.90
2012,11,08,06,53,2.90
2012,11,08,06,54,2.90
2012,11,08,06,55,2.90
2012,11,08,06,56,2.90
2012,11,08,06,57,2.90
2012,11,08,06,58,2.90
2012,11,08,06,59,2.90
2012,11,08,07,00,2.90
2012,11,08,07,01,2.90
2012,11,08,07,02,2.90
2012,11,08,07,03,2.90
2012,11,08,07,04,2.80
2012,11,08,07,05,2.80
2012,11,08,07,06,2.80
2012,11,08,07,07,2.80
2012,11,08,07,08,2.80
2012,11,08,07,09,2.80
2012,11,08,07,10,2.80
2012,11,08,07,11,2.80
2012,11,08,07,12,2.80
2012,11,08,07,13,2.80
2012,11,08,07,14,2.80
2012,11,08,07,15,2.70
2012,11,08,07,16,2.70
2012,11,08,07,17,2.70
2012,11,08,07,18,2.70
2012,11,08,07,19,2.70
2012,11,08,07,20,2.70
2012,11,08,07,21,2.70
2012,11,08,07,22,2.70
2012,11,08,07,23,2.70
2012,11,08,07,24,2.70
2012,11,08,07,25,2.70
2012,11,08,07,26,2.70
2012,11,08,07,27,2.70
2012,11,08,07,28,2.70
2012,11,08,07,29,2.70
2012,11,08,07,30,2.70
2012,11,08,07,31,2.70
2012,11,08,07,32,2.70
2012,11,08,07,33,2.70
2012,11,08,07,34,2.70
2012,11,08,07,35,2.70
2012,11,08,07,36,2.70
2012,11,08,07,37,2.70
2012,11,08,07,38,2.80
2012,11,08,07,39,2.80
2012,11,08,07,40,2.80
2012,11,08,07,41,2.90
2012,11,08,07,42,2.90
2012,11,08,07,43,2.90
2012,11,08,07,44,2.90
2012,11,08,07,45,2.90
2012,11,08,07,46,2.90
2012,11,08,07,47,2.90
2012,11,08,07,48,2.90
2012,11,08,07,49,2.90
2012,11,08,07,50,2.90
2012,11,08,07,51,2.90
2012,11,08,07,52,2.90
2012,11,08,07,53,2.90
2012,11,08,07,54,2.90
2012,11,08,07,55,2.90
2012,11,08,07,56,2.90
2012,11,08,07,57,3.00
2012,11,08,07,58,3.00
2012,11,08,07,59,3.00
2012,11,08,08,00,3.00
2012,11,08,08,01,3.00
2012,11,08,08,02,3.00
2012,11,08,08,03,3.10
2012,11,08,08,04,3.10
2012,11,08,08,05,3.10
2012,11,08,08,06,3.10
2012,11,08,08,07,3.10
2012,11,08,08,08,3.10
2012,11,08,08,09,3.10
2012,11,08,08,10,3.10
2012,11,08,08,11,3.10
2012,11,08,08,12,3.10
2012,11,08,08,13,3.20
2012,11,08,08,14,3.20
2012,11,08,08,15,3.20
2012,11,08,08,16,3.20
2012,11,08,08,17,3.30
2012,11,08,08,18,3.30
2012,11,08,08,19,3.30
2012,11,08,08,20,3.40
2012,11,08,08,21,3.40
2012,11,08,08,22,3.50
2012,11,08,08,23,3.50
2012,11,08,08,24,3.60
2012,11,08,08,25,3.60
2012,11,08,08,26,3.60
2012,11,08,08,27,3.60
2012,11,08,08,28,3.70
2012,11,08,08,29,3.70
2012,11,08,08,30,3.70
2012,11,08,08,31,3.70
2012,11,08,08,32,3.70
2012,11,08,08,33,3.70
2012,11,08,08,34,3.80
2012,11,08,08,35,3.80
2012,11,08,08,36,3.80
2012,11,08,08,37,3.80
2012,11,08,08,38,3.80
2012,11,08,08,39,3.80
2012,11,08,08,40,3.80
2012,11,08,08,41,3.80
2012,11,08,08,42,3.80
2012,11,08,08,43,3.90
2012,11,08,08,44,3.90
2012,11,08,08,45,3.90
2012,11,08,08,46,3.90
2012,11,08,08,47,3.90
2012,11,08,08,48,3.90
2012,11,08,08,49,3.90
2012,11,08,08,50,3.90
2012,11,08,08,51,3.90
2012,11,08,08,52,3.90
2012,11,08,08,53,3.90
2012,11,08,08,54,3.90
2012,11,08,08,55,4.00
2012,11,08,08,56,4.00
2012,11,08,08,57,4.00
2012,11,08,08,58,4.10
2012,11,08,08,59,4.10
2012,11,08,09,00,4.10
2012,11,08,09,01,4.10
2012,11,08,09,02,4.10
2012,11,08,09,03,4.10
2012,11,08,09,04,4.20
2012,11,08,09,05,4.20
2012,11,08,09,06,4.20
2012,11,08,09,07,4.20
2012,11,08,09,08,4.20
2012,11,08,09,09,4.20
2012,11,08,09,10,4.20
2012,11,08,09,11,4.20
2012,11,08,09,12,4.20
2012,11,08,09,13,4.20
2012,11,08,09,14,4.20
2012,11,08,09,15,4.20
2012,11,08,09,16,4.20
2012,11,08,09,17,4.20
2012,11,08,09,18,4.20
2012,11,08,09,19,4.20
2012,11,08,09,20,4.20
2012,11,08,09,21,4.30
2012,11,08,09,22,4.30
2012,11,08,09,23,4.30
2012,11,08,09,24,4.30
2012,11,08,09,25,4.30
2012,11,08,09,26,4.30
2012,11,08,09,27,4.30
2012,11,08,09,28,4.30
2012,11,08,09,29,4.30
2012,11,08,09,30,4.40
2012,11,08,09,31,4.40
2012,11,08,09,32,4.40
2012,11,08,09,33,4.50
2012,11,08,09,34,4.50
2012,11,08,09,35,4.60
2012,11,08,09,36,4.60
2012,11,08,09,37,4.60
2012,11,08,09,38,4.70
2012,11,08,09,39,4.70
2012,11,08,09,40,4.70
2012,11,08,09,41,4.70
2012,11,08,09,42,4.70
2012,11,08,09,43,4.60
2012,11,08,09,44,4.60
2012,11,08,09,45,4.60
2012,11,08,09,46,4.50
2012,11,08,09,47,4.50
2012,11,08,09,48,4.50
2012,11,08,09,49,4.50
2012,11,08,09,50,4.50
2012,11,08,09,51,4.60
2012,11,08,09,52,4.60
2012,11,08,09,53,4.60
2012,11,08,09,54,4.60
2012,11,08,09,55,4.60
2012,11,08,09,56,4.60
2012,11,08,09,57,4.60
2012,11,08,09,58,4.70
2012,11,08,09,59,4.70
2012,11,08,10,00,4.70
2012,11,08,10,01,4.80
2012,11,08,10,02,4.80
2012,11,08,10,03,4.80
2012,11,08,10,04,4.90
2012,11,08,10,05,4.90
2012,11,08,10,06,5.00
2012,11,08,10,07,5.00
2012,11,08,10,08,5.00
2012,11,08,10,09,5.10
2012,11,08,10,10,5.10
2012,11,08,10,11,5.10
2012,11,08,10,12,5.10
2012,11,08,10,13,5.10
2012,11,08,10,14,5.10
2012,11,08,10,15,5.10
2012,11,08,10,16,5.10
2012,11,08,10,17,5.10
2012,11,08,10,18,5.10
2012,11,08,10,19,5.10
2012,11,08,10,20,5.20
2012,11,08,10,21,5.20
2012,11,08,10,22,5.30
2012,11,08,10,23,5.30
2012,11,08,10,24,5.30
2012,11,08,10,25,5.40
2012,11,08,10,26,5.50
2012,11,08,10,27,5.50
2012,11,08,10,28,5.60
2012,11,08,10,29,5.60
2012,11,08,10,30,5.70
2012,11,08,10,31,5.70
2012,11,08,10,32,5.70
2012,11,08,10,33,5.70
2012,11,08,10,34,5.70
2012,11,08,10,35,5.70
2012,11,08,10,36,5.80
2012,11,08,10,37,5.80
2012,11,08,10,38,5.80
2012,11,08,10,39,5.90
2012,11,08,10,40,5.90
2012,11,08,10,41,6.00
2012,11,08,10,42,6.00
2012,11,08,10,43,6.00
2012,11,08,10,44,6.00
2012,11,08,10,45,6.10
2012,11,08,10,46,6.10
2012,11,08,10,47,6.10
2012,11,08,10,48,6.20
2012,11,08,10,49,6.20
2012,11,08,10,50,6.30
2012,11,08,10,51,6.30
2012,11,08,10,52,6.30
2012,11,08,10,53,6.30
2012,11,08,10,54,6.40
2012,11,08,10,55,6.50
2012,11,08,10,56,6.60
2012,11,08,10,57,6.60
2012,11,08,10,58,6.60
2012,11,08,10,59,6.60
2012,11,08,11,00,6.70
2012,11,08,11,01,6.70
2012,11,08,11,02,6.80
2012,11,08,11,03,6.80
2012,11,08,11,04,6.80
2012,11,08,11,05,6.90
2012,11,08,11,06,6.90
2012,11,08,11,07,6.90
2012,11,08,11,08,6.90
2012,11,08,11,09,6.90
2012,11,08,11,10,6.80
2012,11,08,11,11,6.80
2012,11,08,11,12,6.90
2012,11,08,11,13,7.00
2012,11,08,11,14,7.00
2012,11,08,11,15,7.10
2012,11,08,11,16,7.10
2012,11,08,11,17,7.10
2012,11,08,11,18,7.20
2012,11,08,11,19,7.20
2012,11,08,11,20,7.20
2012,11,08,11,21,7.30
2012,11,08,11,22,7.30
2012,11,08,11,23,7.30
2012,11,08,11,24,7.30
2012,11,08,11,25,7.30
2012,11,08,11,26,7.40
2012,11,08,11,27,7.40
2012,11,08,11,28,7.50
2012,11,08,11,29,7.50
2012,11,08,11,30,7.50
2012,11,08,11,31,7.50
2012,11,08,11,32,7.50
2012,11,08,11,33,7.50
2012,11,08,11,34,7.50
2012,11,08,11,35,7.60
2012,11,08,11,36,7.60
2012,11,08,11,37,7.60
2012,11,08,11,38,7.60
2012,11,08,11,39,7.60
2012,11,08,11,40,7.70
2012,11,08,11,41,7.70
2012,11,08,11,42,7.80
2012,11,08,11,43,7.90
2012,11,08,11,44,8.00
2012,11,08,11,45,8.00
2012,11,08,11,46,8.10
2012,11,08,11,47,8.20
2012,11,08,11,48,8.20
2012,11,08,11,49,8.30
2012,11,08,11,50,8.30
2012,11,08,11,51,8.40
2012,11,08,11,52,8.50
2012,11,08,11,53,8.50
2012,11,08,11,54,8.60
2012,11,08,11,55,8.60
2012,11,08,11,56,8.70
2012,11,08,11,57,8.70
2012,11,08,11,58,8.70
2012,11,08,11,59,8.70
2012,11,08,12,00,8.70
2012,11,08,12,01,8.70
2012,11,08,12,02,8.60
2012,11,08,12,03,8.60
2012,11,08,12,04,8.60
2012,11,08,12,05,8.60
2012,11,08,12,06,8.60
2012,11,08,12,07,8.60
2012,11,08,12,08,8.50
2012,11,08,12,09,8.50
2012,11,08,12,10,8.40
2012,11,08,12,11,8.40
2012,11,08,12,12,8.50
2012,11,08,12,13,8.50
2012,11,08,12,14,8.60
2012,11,08,12,15,8.60
2012,11,08,12,16,8.60
2012,11,08,12,17,8.70
2012,11,08,12,18,8.80
2012,11,08,12,19,8.80
2012,11,08,12,20,8.80
2012,11,08,12,21,8.80
2012,11,08,12,22,8.90
2012,11,08,12,23,8.90
2012,11,08,12,24,9.00
2012,11,08,12,25,9.00
2012,11,08,12,26,9.10
2012,11,08,12,27,9.10
2012,11,08,12,28,9.10
2012,11,08,12,29,9.10
2012,11,08,12,30,9.20
2012,11,08,12,31,9.30
2012,11,08,12,32,9.30
2012,11,08,12,33,9.40
2012,11,08,12,34,9.50
2012,11,08,12,35,9.50
2012,11,08,12,36,9.50
2012,11,08,12,37,9.60
2012,11,08,12,38,9.60
2012,11,08,12,39,9.70
2012,11,08,12,40,9.70
2012,11,08,12,41,9.70
2012,11,08,12,42,9.70
2012,11,08,12,43,9.70
2012,11,08,12,44,9.70
2012,11,08,12,45,9.70
2012,11,08,12,46,9.70
2012,11,08,12,47,9.60
2012,11,08,12,48,9.60
2012,11,08,12,49,9.60
2012,11,08,12,50,9.60
2012,11,08,12,51,9.60
2012,11,08,12,52,9.60
2012,11,08,12,53,9.70
2012,11,08,12,54,9.70
2012,11,08,12,55,9.80
2012,11,08,12,56,9.80
2012,11,08,12,57,9.80
2012,11,08,12,58,9.80
2012,11,08,12,59,9.90
2012,11,08,13,00,9.90
2012,11,08,13,01,10.00
2012,11,08,13,02,10.00
2012,11,08,13,03,10.10
2012,11,08,13,04,10.10
2012,11,08,13,05,10.20
2012,11,08,13,06,10.20
2012,11,08,13,07,10.20
2012,11,08,13,08,10.20
2012,11,08,13,09,10.10
2012,11,08,13,10,10.10
2012,11,08,13,11,10.10
2012,11,08,13,12,10.20
2012,11,08,13,13,10.20
2012,11,08,13,14,10.20
2012,11,08,13,15,10.20
2012,11,08,13,16,10.20
2012,11,08,13,17,10.10
2012,11,08,13,18,10.10
2012,11,08,13,19,10.10
2012,11,08,13,20,10.00
2012,11,08,13,21,10.00
2012,11,08,13,22,10.00
2012,11,08,13,23,9.90
2012,11,08,13,24,9.90
2012,11,08,13,25,9.90
2012,11,08,13,26,9.90
2012,11,08,13,27,9.90
2012,11,08,13,28,9.80
2012,11,08,13,29,9.80
2012,11,08,13,30,9.80
2012,11,08,13,31,9.80
2012,11,08,13,32,9.80
2012,11,08,13,33,9.80
2012,11,08,13,34,9.70
2012,11,08,13,35,9.70
2012,11,08,13,36,9.80
2012,11,08,13,37,9.80
2012,11,08,13,38,9.80
2012,11,08,13,39,9.80
2012,11,08,13,40,9.80
2012,11,08,13,41,9.80
2012,11,08,13,42,9.80
2012,11,08,13,43,9.80
2012,11,08,13,44,9.90
2012,11,08,13,45,9.90
2012,11,08,13,46,10.00
2012,11,08,13,47,10.00
2012,11,08,13,48,10.10
2012,11,08,13,49,10.10
2012,11,08,13,50,10.10
2012,11,08,13,51,10.20
2012,11,08,13,52,10.20
2012,11,08,13,53,10.20
2012,11,08,13,54,10.30
2012,11,08,13,55,10.30
2012,11,08,13,56,10.30
2012,11,08,13,57,10.30
2012,11,08,13,58,10.30
2012,11,08,13,59,10.20
2012,11,08,14,00,10.20
2012,11,08,14,01,10.10
2012,11,08,14,02,10.10
2012,11,08,14,03,10.10
2012,11,08,14,04,10.10
2012,11,08,14,05,10.10
2012,11,08,14,06,10.20
2012,11,08,14,07,10.20
2012,11,08,14,08,10.30
2012,11,08,14,09,10.30
2012,11,08,14,10,10.30
2012,11,08,14,11,10.40
2012,11,08,14,12,10.40
2012,11,08,14,13,10.40
2012,11,08,14,14,10.40
2012,11,08,14,15,10.40
2012,11,08,14,16,10.40
2012,11,08,14,17,10.50
2012,11,08,14,18,10.50
2012,11,08,14,19,10.50
2012,11,08,14,20,10.60
2012,11,08,14,21,10.60
2012,11,08,14,22,10.70
2012,11,08,14,23,10.70
2012,11,08,14,24,10.70
2012,11,08,14,25,10.70
2012,11,08,14,26,10.70
2012,11,08,14,27,10.70
2012,11,08,14,28,10.70
2012,11,08,14,29,10.70
2012,11,08,14,30,10.70
2012,11,08,14,31,10.70
2012,11,08,14,32,10.70
2012,11,08,14,33,10.70
2012,11,08,14,34,10.70
2012,11,08,14,35,10.70
2012,11,08,14,36,10.80
2012,11,08,14,37,10.70
2012,11,08,14,38,10.70
2012,11,08,14,39,10.70
2012,11,08,14,40,10.70
2012,11,08,14,41,10.70
2012,11,08,14,42,10.70
2012,11,08,14,43,10.60
2012,11,08,14,44,10.60
2012,11,08,14,45,10.60
2012,11,08,14,46,10.50
2012,11,08,14,47,10.50
2012,11,08,14,48,10.40
2012,11,08,14,49,10.40
2012,11,08,14,50,10.40
2012,11,08,14,51,10.30
2012,11,08,14,52,10.30
2012,11,08,14,53,10.30
2012,11,08,14,54,10.20
2012,11,08,14,55,10.20
2012,11,08,14,56,10.10
2012,11,08,14,57,10.00
2012,11,08,14,58,9.90
2012,11,08,14,59,9.80
2012,11,08,15,00,9.80
2012,11,08,15,01,9.70
2012,11,08,15,02,9.60
2012,11,08,15,03,9.50
2012,11,08,15,04,9.40
2012,11,08,15,05,9.40
2012,11,08,15,06,9.30
2012,11,08,15,07,9.20
2012,11,08,15,08,9.10
2012,11,08,15,09,9.10
2012,11,08,15,10,9.00
2012,11,08,15,11,8.90
2012,11,08,15,12,8.90
2012,11,08,15,13,8.90
2012,11,08,15,14,8.80
2012,11,08,15,15,8.80
2012,11,08,15,16,8.80
2012,11,08,15,17,8.70
2012,11,08,15,18,8.70
2012,11,08,15,19,8.60
2012,11,08,15,20,8.60
2012,11,08,15,21,8.50
2012,11,08,15,22,8.50
2012,11,08,15,23,8.40
2012,11,08,15,24,8.30
2012,11,08,15,25,8.20
2012,11,08,15,26,8.20
2012,11,08,15,27,8.10
2012,11,08,15,28,8.00
2012,11,08,15,29,8.00
2012,11,08,15,30,7.90
2012,11,08,15,31,7.90
2012,11,08,15,32,7.80
2012,11,08,15,33,7.80
2012,11,08,15,34,7.80
2012,11,08,15,35,7.70
2012,11,08,15,36,7.70
2012,11,08,15,37,7.80
2012,11,08,15,38,7.70
2012,11,08,15,39,7.70
2012,11,08,15,40,7.70
2012,11,08,15,41,7.70
2012,11,08,15,42,7.80
2012,11,08,15,43,7.80
2012,11,08,15,44,7.80
2012,11,08,15,45,7.80
2012,11,08,15,46,7.80
2012,11,08,15,47,7.80
2012,11,08,15,48,7.70
2012,11,08,15,49,7.60
2012,11,08,15,50,7.60
2012,11,08,15,51,7.60
2012,11,08,15,52,7.50
2012,11,08,15,53,7.50
2012,11,08,15,54,7.40
2012,11,08,15,55,7.40
2012,11,08,15,56,7.30
2012,11,08,15,57,7.20
2012,11,08,15,58,7.10
2012,11,08,15,59,7.10
2012,11,08,16,00,7.10
2012,11,08,16,01,7.00
2012,11,08,16,02,7.00
2012,11,08,16,03,6.90
2012,11,08,16,04,6.90
2012,11,08,16,05,6.80
2012,11,08,16,06,6.80
2012,11,08,16,07,6.80
2012,11,08,16,08,6.70
2012,11,08,16,09,6.70
2012,11,08,16,10,6.70
2012,11,08,16,11,6.60
2012,11,08,16,12,6.60
2012,11,08,16,13,6.50
2012,11,08,16,14,6.50
2012,11,08,16,15,6.40
2012,11,08,16,16,6.40
2012,11,08,16,17,6.30
2012,11,08,16,18,6.30
2012,11,08,16,19,6.30
2012,11,08,16,20,6.20
2012,11,08,16,21,6.20
2012,11,08,16,22,6.10
2012,11,08,16,23,6.10
2012,11,08,16,24,6.10
2012,11,08,16,25,6.00
2012,11,08,16,26,5.90
2012,11,08,16,27,5.90
2012,11,08,16,28,5.90
2012,11,08,16,29,5.80
2012,11,08,16,30,5.80
2012,11,08,16,31,5.80
2012,11,08,16,32,5.70
2012,11,08,16,33,5.70
2012,11,08,16,34,5.70
2012,11,08,16,35,5.60
2012,11,08,16,36,5.60
2012,11,08,16,37,5.60
2012,11,08,16,38,5.60
2012,11,08,16,39,5.50
2012,11,08,16,40,5.50
2012,11,08,16,41,5.40
2012,11,08,16,42,5.40
2012,11,08,16,43,5.40
2012,11,08,16,44,5.40
2012,11,08,16,45,5.30
2012,11,08,16,46,5.30
2012,11,08,16,47,5.30
2012,11,08,16,48,5.30
2012,11,08,16,49,5.20
2012,11,08,16,50,5.20
2012,11,08,16,51,5.20
2012,11,08,16,52,5.10
2012,11,08,16,53,5.10
2012,11,08,16,54,5.10
2012,11,08,16,55,5.00
2012,11,08,16,56,5.00
2012,11,08,16,57,5.00
2012,11,08,16,58,4.90
2012,11,08,16,59,4.90
2012,11,08,17,00,4.90
2012,11,08,17,01,4.80
2012,11,08,17,02,4.80
2012,11,08,17,03,4.80
2012,11,08,17,04,4.80
2012,11,08,17,05,4.70
2012,11,08,17,06,4.70
2012,11,08,17,07,4.70
2012,11,08,17,08,4.70
2012,11,08,17,09,4.60
2012,11,08,17,10,4.60
2012,11,08,17,11,4.60
2012,11,08,17,12,4.60
2012,11,08,17,13,4.50
2012,11,08,17,14,4.50
2012,11,08,17,15,4.50
2012,11,08,17,16,4.40
2012,11,08,17,17,4.40
2012,11,08,17,18,4.40
2012,11,08,17,19,4.40
2012,11,08,17,20,4.30
2012,11,08,17,21,4.30
2012,11,08,17,22,4.30
2012,11,08,17,23,4.30
2012,11,08,17,24,4.30
2012,11,08,17,25,4.30
2012,11,08,17,26,4.20
2012,11,08,17,27,4.20
2012,11,08,17,28,4.20
2012,11,08,17,29,4.20
2012,11,08,17,30,4.20
2012,11,08,17,31,4.10
2012,11,08,17,32,4.10
2012,11,08,17,33,4.10
2012,11,08,17,34,4.10
2012,11,08,17,35,4.10
2012,11,08,17,36,4.10
2012,11,08,17,37,4.10
2012,11,08,17,38,4.10
2012,11,08,17,39,4.10
2012,11,08,17,40,4.10
2012,11,08,17,41,4.10
2012,11,08,17,42,4.10
2012,11,08,17,43,4.10
2012,11,08,17,44,4.00
2012,11,08,17,45,4.00
2012,11,08,17,46,4.00
2012,11,08,17,47,4.00
2012,11,08,17,48,4.00
2012,11,08,17,49,4.00
2012,11,08,17,50,4.00
2012,11,08,17,51,4.00
2012,11,08,17,52,4.00
2012,11,08,17,53,4.00
2012,11,08,17,54,4.00
2012,11,08,17,55,4.00
2012,11,08,17,56,3.90
2012,11,08,17,57,3.90
2012,11,08,17,58,3.90
2012,11,08,17,59,3.90
2012,11,08,18,00,3.90
2012,11,08,18,01,3.90
2012,11,08,18,02,3.90
2012,11,08,18,03,3.90
2012,11,08,18,04,3.80
2012,11,08,18,05,3.80
2012,11,08,18,06,3.80